User: anonymous   Login
Location: ???????
(55.4362°N, 38.1183°E)
Time: 02:00:17
(UTC+00:00)
Language:

Cosmos 1953 - Orbit

View from above orbital plane
View from above orbital plane
View from above satellite
View from above satellite

Ground track
Ground track

The orbit data is extracted from the following two-line orbital elements,

1 19210U 88050A   21264.44574640  .00001127  00000-0  74516-4 0  9991
2 19210  82.5177 322.2310 0013066 349.4023  10.6926 15.06382440791058
Epoch (UTC): 21 September 2021 10:41:52
Eccentricity: 0.0013066
inclination: 82.5177°
perigee height: 538 km
apogee height: 556 km
right ascension of ascending node: 322.2310°
argument of perigee: 349.4023°
revolutions per day: 15.06382440
mean anomaly at epoch: 10.6926°
orbit number at epoch: 79105

The dashed part of the orbit path shows where the satellite is in the earth's shadow,  

DLR